Year,Month,Day,Hour,Minute,Value (Times are PST for temperature in C)
2013,05,04,00,00,10.60
2013,05,04,00,01,10.60
2013,05,04,00,02,10.60
2013,05,04,00,03,10.60
2013,05,04,00,04,10.60
2013,05,04,00,05,10.60
2013,05,04,00,06,10.60
2013,05,04,00,07,10.60
2013,05,04,00,08,10.60
2013,05,04,00,09,10.60
2013,05,04,00,10,10.60
2013,05,04,00,11,10.70
2013,05,04,00,12,10.70
2013,05,04,00,13,10.70
2013,05,04,00,14,10.70
2013,05,04,00,15,10.70
2013,05,04,00,16,10.70
2013,05,04,00,17,10.70
2013,05,04,00,18,10.70
2013,05,04,00,19,10.70
2013,05,04,00,20,10.70
2013,05,04,00,21,10.70
2013,05,04,00,22,10.70
2013,05,04,00,23,10.70
2013,05,04,00,24,10.60
2013,05,04,00,25,10.60
2013,05,04,00,26,10.60
2013,05,04,00,27,10.50
2013,05,04,00,28,10.40
2013,05,04,00,29,10.40
2013,05,04,00,30,10.40
2013,05,04,00,31,10.40
2013,05,04,00,32,10.40
2013,05,04,00,33,10.40
2013,05,04,00,34,10.40
2013,05,04,00,35,10.40
2013,05,04,00,36,10.40
2013,05,04,00,37,10.40
2013,05,04,00,38,10.50
2013,05,04,00,39,10.60
2013,05,04,00,40,10.60
2013,05,04,00,41,10.60
2013,05,04,00,42,10.50
2013,05,04,00,43,10.40
2013,05,04,00,44,10.40
2013,05,04,00,45,10.60
2013,05,04,00,46,10.60
2013,05,04,00,47,10.70
2013,05,04,00,48,10.70
2013,05,04,00,49,10.70
2013,05,04,00,50,10.80
2013,05,04,00,51,10.80
2013,05,04,00,52,10.80
2013,05,04,00,53,10.70
2013,05,04,00,54,10.70
2013,05,04,00,55,10.60
2013,05,04,00,56,10.60
2013,05,04,00,57,10.50
2013,05,04,00,58,10.40
2013,05,04,00,59,10.30
2013,05,04,01,00,10.30
2013,05,04,01,01,10.30
2013,05,04,01,02,10.30
2013,05,04,01,03,10.20
2013,05,04,01,04,10.20
2013,05,04,01,05,10.20
2013,05,04,01,06,10.20
2013,05,04,01,07,10.20
2013,05,04,01,08,10.20
2013,05,04,01,09,10.20
2013,05,04,01,10,10.10
2013,05,04,01,11,10.10
2013,05,04,01,12,10.10
2013,05,04,01,13,10.10
2013,05,04,01,14,10.10
2013,05,04,01,15,10.10
2013,05,04,01,16,10.10
2013,05,04,01,17,10.10
2013,05,04,01,18,10.10
2013,05,04,01,19,10.10
2013,05,04,01,20,10.00
2013,05,04,01,21,9.90
2013,05,04,01,22,9.90
2013,05,04,01,23,9.90
2013,05,04,01,24,9.90
2013,05,04,01,25,9.90
2013,05,04,01,26,9.90
2013,05,04,01,27,10.00
2013,05,04,01,28,10.10
2013,05,04,01,29,10.10
2013,05,04,01,30,10.10
2013,05,04,01,31,10.10
2013,05,04,01,32,10.10
2013,05,04,01,33,10.10
2013,05,04,01,34,10.20
2013,05,04,01,35,10.40
2013,05,04,01,36,10.50
2013,05,04,01,37,10.70
2013,05,04,01,38,10.90
2013,05,04,01,39,11.00
2013,05,04,01,40,11.20
2013,05,04,01,41,11.20
2013,05,04,01,42,11.40
2013,05,04,01,43,11.50
2013,05,04,01,44,11.60
2013,05,04,01,45,11.70
2013,05,04,01,46,11.70
2013,05,04,01,47,11.80
2013,05,04,01,48,11.90
2013,05,04,01,49,12.00
2013,05,04,01,50,12.00
2013,05,04,01,51,12.10
2013,05,04,01,52,12.10
2013,05,04,01,53,12.10
2013,05,04,01,54,12.20
2013,05,04,01,55,12.20
2013,05,04,01,56,12.30
2013,05,04,01,57,12.30
2013,05,04,01,58,12.30
2013,05,04,01,59,12.40
2013,05,04,02,00,12.50
2013,05,04,02,01,12.50
2013,05,04,02,02,12.60
2013,05,04,02,03,12.60
2013,05,04,02,04,12.70
2013,05,04,02,05,12.80
2013,05,04,02,06,12.80
2013,05,04,02,07,12.80
2013,05,04,02,08,12.80
2013,05,04,02,09,12.80
2013,05,04,02,10,12.80
2013,05,04,02,11,12.80
2013,05,04,02,12,12.80
2013,05,04,02,13,12.80
2013,05,04,02,14,12.70
2013,05,04,02,15,12.70
2013,05,04,02,16,12.70
2013,05,04,02,17,12.60
2013,05,04,02,18,12.60
2013,05,04,02,19,12.60
2013,05,04,02,20,12.50
2013,05,04,02,21,12.50
2013,05,04,02,22,12.50
2013,05,04,02,23,12.50
2013,05,04,02,24,12.40
2013,05,04,02,25,12.40
2013,05,04,02,26,12.30
2013,05,04,02,27,12.30
2013,05,04,02,28,12.20
2013,05,04,02,29,12.20
2013,05,04,02,30,12.10
2013,05,04,02,31,12.10
2013,05,04,02,32,12.10
2013,05,04,02,33,12.10
2013,05,04,02,34,12.10
2013,05,04,02,35,12.10
2013,05,04,02,36,12.10
2013,05,04,02,37,12.10
2013,05,04,02,38,12.20
2013,05,04,02,39,12.20
2013,05,04,02,40,12.20
2013,05,04,02,41,12.30
2013,05,04,02,42,12.30
2013,05,04,02,43,12.30
2013,05,04,02,44,12.30
2013,05,04,02,45,12.40
2013,05,04,02,46,12.40
2013,05,04,02,47,12.50
2013,05,04,02,48,12.50
2013,05,04,02,49,12.50
2013,05,04,02,50,12.50
2013,05,04,02,51,12.50
2013,05,04,02,52,12.50
2013,05,04,02,53,12.50
2013,05,04,02,54,12.50
2013,05,04,02,55,12.50
2013,05,04,02,56,12.40
2013,05,04,02,57,12.40
2013,05,04,02,58,12.30
2013,05,04,02,59,12.30
2013,05,04,03,00,12.20
2013,05,04,03,01,12.10
2013,05,04,03,02,12.00
2013,05,04,03,03,12.00
2013,05,04,03,04,11.90
2013,05,04,03,05,11.80
2013,05,04,03,06,11.80
2013,05,04,03,07,11.70
2013,05,04,03,08,11.60
2013,05,04,03,09,11.60
2013,05,04,03,10,11.50
2013,05,04,03,11,11.40
2013,05,04,03,12,11.40
2013,05,04,03,13,11.40
2013,05,04,03,14,11.30
2013,05,04,03,15,11.30
2013,05,04,03,16,11.20
2013,05,04,03,17,11.10
2013,05,04,03,18,11.10
2013,05,04,03,19,11.00
2013,05,04,03,20,10.90
2013,05,04,03,21,10.90
2013,05,04,03,22,10.90
2013,05,04,03,23,10.90
2013,05,04,03,24,10.80
2013,05,04,03,25,10.80
2013,05,04,03,26,10.70
2013,05,04,03,27,10.70
2013,05,04,03,28,10.60
2013,05,04,03,29,10.60
2013,05,04,03,30,10.60
2013,05,04,03,31,10.60
2013,05,04,03,32,10.60
2013,05,04,03,33,10.50
2013,05,04,03,34,10.40
2013,05,04,03,35,10.40
2013,05,04,03,36,10.40
2013,05,04,03,37,10.40
2013,05,04,03,38,10.40
2013,05,04,03,39,10.40
2013,05,04,03,40,10.40
2013,05,04,03,41,10.40
2013,05,04,03,42,10.40
2013,05,04,03,43,10.40
2013,05,04,03,44,10.30
2013,05,04,03,45,10.30
2013,05,04,03,46,10.30
2013,05,04,03,47,10.20
2013,05,04,03,48,10.20
2013,05,04,03,49,10.20
2013,05,04,03,50,10.10
2013,05,04,03,51,10.10
2013,05,04,03,52,10.10
2013,05,04,03,53,10.10
2013,05,04,03,54,10.00
2013,05,04,03,55,9.90
2013,05,04,03,56,9.90
2013,05,04,03,57,9.90
2013,05,04,03,58,9.90
2013,05,04,03,59,9.90
2013,05,04,04,00,9.90
2013,05,04,04,01,9.90
2013,05,04,04,02,9.90
2013,05,04,04,03,9.80
2013,05,04,04,04,9.80
2013,05,04,04,05,9.90
2013,05,04,04,06,9.90
2013,05,04,04,07,9.90
2013,05,04,04,08,9.90
2013,05,04,04,09,9.90
2013,05,04,04,10,10.00
2013,05,04,04,11,10.10
2013,05,04,04,12,10.00
2013,05,04,04,13,9.90
2013,05,04,04,14,9.90
2013,05,04,04,15,9.90
2013,05,04,04,16,9.90
2013,05,04,04,17,9.80
2013,05,04,04,18,9.80
2013,05,04,04,19,9.70
2013,05,04,04,20,9.70
2013,05,04,04,21,9.70
2013,05,04,04,22,9.70
2013,05,04,04,23,9.70
2013,05,04,04,24,9.70
2013,05,04,04,25,9.70
2013,05,04,04,26,9.70
2013,05,04,04,27,9.70
2013,05,04,04,28,9.70
2013,05,04,04,29,9.70
2013,05,04,04,30,9.80
2013,05,04,04,31,9.80
2013,05,04,04,32,9.90
2013,05,04,04,33,9.90
2013,05,04,04,34,9.90
2013,05,04,04,35,9.90
2013,05,04,04,36,9.90
2013,05,04,04,37,10.10
2013,05,04,04,38,10.10
2013,05,04,04,39,10.10
2013,05,04,04,40,10.10
2013,05,04,04,41,10.10
2013,05,04,04,42,10.20
2013,05,04,04,43,10.20
2013,05,04,04,44,10.20
2013,05,04,04,45,10.20
2013,05,04,04,46,10.20
2013,05,04,04,47,10.30
2013,05,04,04,48,10.40
2013,05,04,04,49,10.50
2013,05,04,04,50,10.70
2013,05,04,04,51,10.80
2013,05,04,04,52,11.00
2013,05,04,04,53,11.10
2013,05,04,04,54,11.30
2013,05,04,04,55,11.40
2013,05,04,04,56,11.40
2013,05,04,04,57,11.40
2013,05,04,04,58,11.40
2013,05,04,04,59,11.40
2013,05,04,05,00,11.40
2013,05,04,05,01,11.30
2013,05,04,05,02,11.20
2013,05,04,05,03,11.10
2013,05,04,05,04,10.90
2013,05,04,05,05,10.80
2013,05,04,05,06,10.70
2013,05,04,05,07,10.60
2013,05,04,05,08,10.40
2013,05,04,05,09,10.40
2013,05,04,05,10,10.30
2013,05,04,05,11,10.30
2013,05,04,05,12,10.30
2013,05,04,05,13,10.30
2013,05,04,05,14,10.30
2013,05,04,05,15,10.20
2013,05,04,05,16,10.20
2013,05,04,05,17,10.20
2013,05,04,05,18,10.00
2013,05,04,05,19,9.80
2013,05,04,05,20,9.60
2013,05,04,05,21,9.50
2013,05,04,05,22,9.50
2013,05,04,05,23,9.50
2013,05,04,05,24,9.60
2013,05,04,05,25,9.70
2013,05,04,05,26,9.80
2013,05,04,05,27,9.90
2013,05,04,05,28,10.00
2013,05,04,05,29,10.10
2013,05,04,05,30,10.10
2013,05,04,05,31,10.10
2013,05,04,05,32,10.10
2013,05,04,05,33,10.10
2013,05,04,05,34,10.10
2013,05,04,05,35,10.10
2013,05,04,05,36,10.10
2013,05,04,05,37,10.10
2013,05,04,05,38,10.10
2013,05,04,05,39,10.00
2013,05,04,05,40,9.90
2013,05,04,05,41,9.90
2013,05,04,05,42,9.90
2013,05,04,05,43,9.90
2013,05,04,05,44,9.90
2013,05,04,05,45,9.90
2013,05,04,05,46,9.90
2013,05,04,05,47,9.90
2013,05,04,05,48,9.90
2013,05,04,05,49,9.90
2013,05,04,05,50,9.90
2013,05,04,05,51,9.90
2013,05,04,05,52,9.90
2013,05,04,05,53,9.80
2013,05,04,05,54,9.80
2013,05,04,05,55,9.80
2013,05,04,05,56,9.80
2013,05,04,05,57,9.80
2013,05,04,05,58,9.70
2013,05,04,05,59,9.70
2013,05,04,06,00,9.70
2013,05,04,06,01,9.70
2013,05,04,06,02,9.60
2013,05,04,06,03,9.60
2013,05,04,06,04,9.60
2013,05,04,06,05,9.60
2013,05,04,06,06,9.60
2013,05,04,06,07,9.60
2013,05,04,06,08,9.50
2013,05,04,06,09,9.50
2013,05,04,06,10,9.50
2013,05,04,06,11,9.50
2013,05,04,06,12,9.40
2013,05,04,06,13,9.40
2013,05,04,06,14,9.40
2013,05,04,06,15,9.40
2013,05,04,06,16,9.40
2013,05,04,06,17,9.40
2013,05,04,06,18,9.40
2013,05,04,06,19,9.40
2013,05,04,06,20,9.40
2013,05,04,06,21,9.30
2013,05,04,06,22,9.30
2013,05,04,06,23,9.30
2013,05,04,06,24,9.30
2013,05,04,06,25,9.30
2013,05,04,06,26,9.30
2013,05,04,06,27,9.30
2013,05,04,06,28,9.30
2013,05,04,06,29,9.30
2013,05,04,06,30,9.30
2013,05,04,06,31,9.30
2013,05,04,06,32,9.30
2013,05,04,06,33,9.30
2013,05,04,06,34,9.30
2013,05,04,06,35,9.30
2013,05,04,06,36,9.20
2013,05,04,06,37,9.20
2013,05,04,06,38,9.30
2013,05,04,06,39,9.40
2013,05,04,06,40,9.60
2013,05,04,06,41,9.70
2013,05,04,06,42,9.80
2013,05,04,06,43,10.00
2013,05,04,06,44,10.10
2013,05,04,06,45,10.20
2013,05,04,06,46,10.30
2013,05,04,06,47,10.40
2013,05,04,06,48,10.40
2013,05,04,06,49,10.40
2013,05,04,06,50,10.60
2013,05,04,06,51,10.60
2013,05,04,06,52,10.60
2013,05,04,06,53,10.70
2013,05,04,06,54,10.80
2013,05,04,06,55,10.90
2013,05,04,06,56,10.90
2013,05,04,06,57,11.00
2013,05,04,06,58,11.10
2013,05,04,06,59,11.20
2013,05,04,07,00,11.30
2013,05,04,07,01,11.30
2013,05,04,07,02,11.40
2013,05,04,07,03,11.30
2013,05,04,07,04,11.30
2013,05,04,07,05,11.30
2013,05,04,07,06,11.30
2013,05,04,07,07,11.40
2013,05,04,07,08,11.40
2013,05,04,07,09,11.40
2013,05,04,07,10,11.60
2013,05,04,07,11,11.60
2013,05,04,07,12,11.60
2013,05,04,07,13,11.60
2013,05,04,07,14,11.70
2013,05,04,07,15,11.80
2013,05,04,07,16,11.80
2013,05,04,07,17,11.80
2013,05,04,07,18,11.90
2013,05,04,07,19,11.90
2013,05,04,07,20,12.00
2013,05,04,07,21,12.00
2013,05,04,07,22,12.10
2013,05,04,07,23,12.20
2013,05,04,07,24,12.20
2013,05,04,07,25,12.20
2013,05,04,07,26,12.30
2013,05,04,07,27,12.30
2013,05,04,07,28,12.30
2013,05,04,07,29,12.30
2013,05,04,07,30,12.40
2013,05,04,07,31,12.40
2013,05,04,07,32,12.50
2013,05,04,07,33,12.50
2013,05,04,07,34,12.60
2013,05,04,07,35,12.70
2013,05,04,07,36,12.70
2013,05,04,07,37,12.80
2013,05,04,07,38,12.80
2013,05,04,07,39,12.90
2013,05,04,07,40,13.00
2013,05,04,07,41,13.00
2013,05,04,07,42,13.10
2013,05,04,07,43,13.20
2013,05,04,07,44,13.30
2013,05,04,07,45,13.30
2013,05,04,07,46,13.40
2013,05,04,07,47,13.50
2013,05,04,07,48,13.60
2013,05,04,07,49,13.60
2013,05,04,07,50,13.60
2013,05,04,07,51,13.70
2013,05,04,07,52,13.70
2013,05,04,07,53,13.80
2013,05,04,07,54,13.80
2013,05,04,07,55,13.90
2013,05,04,07,56,13.90
2013,05,04,07,57,14.00
2013,05,04,07,58,14.00
2013,05,04,07,59,14.10
2013,05,04,08,00,14.10
2013,05,04,08,01,14.20
2013,05,04,08,02,14.20
2013,05,04,08,03,14.20
2013,05,04,08,04,14.30
2013,05,04,08,05,14.30
2013,05,04,08,06,14.40
2013,05,04,08,07,14.40
2013,05,04,08,08,14.40
2013,05,04,08,09,14.40
2013,05,04,08,10,14.50
2013,05,04,08,11,14.50
2013,05,04,08,12,14.60
2013,05,04,08,13,14.60
2013,05,04,08,14,14.60
2013,05,04,08,15,14.70
2013,05,04,08,16,14.70
2013,05,04,08,17,14.80
2013,05,04,08,18,14.80
2013,05,04,08,19,14.80
2013,05,04,08,20,14.80
2013,05,04,08,21,14.90
2013,05,04,08,22,14.90
2013,05,04,08,23,14.90
2013,05,04,08,24,14.90
2013,05,04,08,25,14.80
2013,05,04,08,26,14.80
2013,05,04,08,27,14.80
2013,05,04,08,28,14.90
2013,05,04,08,29,14.90
2013,05,04,08,30,14.90
2013,05,04,08,31,14.90
2013,05,04,08,32,14.90
2013,05,04,08,33,15.00
2013,05,04,08,34,15.00
2013,05,04,08,35,15.10
2013,05,04,08,36,15.10
2013,05,04,08,37,15.10
2013,05,04,08,38,15.10
2013,05,04,08,39,15.10
2013,05,04,08,40,15.20
2013,05,04,08,41,15.20
2013,05,04,08,42,15.20
2013,05,04,08,43,15.30
2013,05,04,08,44,15.30
2013,05,04,08,45,15.30
2013,05,04,08,46,15.40
2013,05,04,08,47,15.40
2013,05,04,08,48,15.40
2013,05,04,08,49,15.50
2013,05,04,08,50,15.50
2013,05,04,08,51,15.50
2013,05,04,08,52,15.60
2013,05,04,08,53,15.60
2013,05,04,08,54,15.70
2013,05,04,08,55,15.80
2013,05,04,08,56,15.80
2013,05,04,08,57,15.80
2013,05,04,08,58,15.80
2013,05,04,08,59,15.80
2013,05,04,09,00,15.80
2013,05,04,09,01,15.80
2013,05,04,09,02,15.80
2013,05,04,09,03,15.80
2013,05,04,09,04,15.80
2013,05,04,09,05,15.80
2013,05,04,09,06,15.80
2013,05,04,09,07,15.80
2013,05,04,09,08,15.80
2013,05,04,09,09,15.90
2013,05,04,09,10,15.90
2013,05,04,09,11,15.90
2013,05,04,09,12,15.90
2013,05,04,09,13,15.90
2013,05,04,09,14,15.90
2013,05,04,09,15,15.90
2013,05,04,09,16,15.90
2013,05,04,09,17,15.90
2013,05,04,09,18,15.90
2013,05,04,09,19,16.00
2013,05,04,09,20,16.10
2013,05,04,09,21,16.10
2013,05,04,09,22,16.20
2013,05,04,09,23,16.20
2013,05,04,09,24,16.30
2013,05,04,09,25,16.30
2013,05,04,09,26,16.40
2013,05,04,09,27,16.40
2013,05,04,09,28,16.40
2013,05,04,09,29,16.40
2013,05,04,09,30,16.50
2013,05,04,09,31,16.60
2013,05,04,09,32,16.70
2013,05,04,09,33,16.70
2013,05,04,09,34,16.70
2013,05,04,09,35,16.80
2013,05,04,09,36,16.80
2013,05,04,09,37,16.80
2013,05,04,09,38,16.80
2013,05,04,09,39,16.80
2013,05,04,09,40,16.80
2013,05,04,09,41,16.80
2013,05,04,09,42,16.80
2013,05,04,09,43,16.80
2013,05,04,09,44,16.80
2013,05,04,09,45,16.80
2013,05,04,09,46,16.80
2013,05,04,09,47,16.90
2013,05,04,09,48,16.90
2013,05,04,09,49,16.90
2013,05,04,09,50,16.90
2013,05,04,09,51,16.90
2013,05,04,09,52,16.90
2013,05,04,09,53,16.90
2013,05,04,09,54,16.80
2013,05,04,09,55,16.80
2013,05,04,09,56,16.90
2013,05,04,09,57,16.90
2013,05,04,09,58,17.00
2013,05,04,09,59,17.00
2013,05,04,10,00,17.10
2013,05,04,10,01,17.10
2013,05,04,10,02,17.20
2013,05,04,10,03,17.20
2013,05,04,10,04,17.20
2013,05,04,10,05,17.20
2013,05,04,10,06,17.20
2013,05,04,10,07,17.30
2013,05,04,10,08,17.30
2013,05,04,10,09,17.30
2013,05,04,10,10,17.30
2013,05,04,10,11,17.30
2013,05,04,10,12,17.20
2013,05,04,10,13,17.10
2013,05,04,10,14,17.10
2013,05,04,10,15,17.00
2013,05,04,10,16,17.00
2013,05,04,10,17,17.00
2013,05,04,10,18,16.90
2013,05,04,10,19,17.00
2013,05,04,10,20,17.10
2013,05,04,10,21,17.10
2013,05,04,10,22,17.30
2013,05,04,10,23,17.30
2013,05,04,10,24,17.40
2013,05,04,10,25,17.50
2013,05,04,10,26,17.60
2013,05,04,10,27,17.60
2013,05,04,10,28,17.70
2013,05,04,10,29,17.70
2013,05,04,10,30,17.70
2013,05,04,10,31,17.80
2013,05,04,10,32,17.80
2013,05,04,10,33,17.80
2013,05,04,10,34,17.90
2013,05,04,10,35,18.00
2013,05,04,10,36,18.10
2013,05,04,10,37,18.20
2013,05,04,10,38,18.30
2013,05,04,10,39,18.40
2013,05,04,10,40,18.50
2013,05,04,10,41,18.50
2013,05,04,10,42,18.50
2013,05,04,10,43,18.50
2013,05,04,10,44,18.60
2013,05,04,10,45,18.60
2013,05,04,10,46,18.70
2013,05,04,10,47,18.70
2013,05,04,10,48,18.80
2013,05,04,10,49,18.70
2013,05,04,10,50,18.60
2013,05,04,10,51,18.60
2013,05,04,10,52,18.50
2013,05,04,10,53,18.40
2013,05,04,10,54,18.40
2013,05,04,10,55,18.40
2013,05,04,10,56,18.40
2013,05,04,10,57,18.30
2013,05,04,10,58,18.30
2013,05,04,10,59,18.30
2013,05,04,11,00,18.40
2013,05,04,11,01,18.40
2013,05,04,11,02,18.40
2013,05,04,11,03,18.40
2013,05,04,11,04,18.40
2013,05,04,11,05,18.50
2013,05,04,11,06,18.50
2013,05,04,11,07,18.50
2013,05,04,11,08,18.50
2013,05,04,11,09,18.60
2013,05,04,11,10,18.60
2013,05,04,11,11,18.60
2013,05,04,11,12,18.60
2013,05,04,11,13,18.60
2013,05,04,11,14,18.60
2013,05,04,11,15,18.60
2013,05,04,11,16,18.70
2013,05,04,11,17,18.70
2013,05,04,11,18,18.70
2013,05,04,11,19,18.70
2013,05,04,11,20,18.60
2013,05,04,11,21,18.60
2013,05,04,11,22,18.50
2013,05,04,11,23,18.40
2013,05,04,11,24,18.40
2013,05,04,11,25,18.40
2013,05,04,11,26,18.30
2013,05,04,11,27,18.40
2013,05,04,11,28,18.40
2013,05,04,11,29,18.40
2013,05,04,11,30,18.40
2013,05,04,11,31,18.50
2013,05,04,11,32,18.50
2013,05,04,11,33,18.50
2013,05,04,11,34,18.50
2013,05,04,11,35,18.60
2013,05,04,11,36,18.60
2013,05,04,11,37,18.50
2013,05,04,11,38,18.50
2013,05,04,11,39,18.50
2013,05,04,11,40,18.50
2013,05,04,11,41,18.50
2013,05,04,11,42,18.60
2013,05,04,11,43,18.60
2013,05,04,11,44,18.70
2013,05,04,11,45,18.70
2013,05,04,11,46,18.70
2013,05,04,11,47,18.70
2013,05,04,11,48,18.80
2013,05,04,11,49,18.70
2013,05,04,11,50,18.70
2013,05,04,11,51,18.70
2013,05,04,11,52,18.80
2013,05,04,11,53,18.90
2013,05,04,11,54,18.90
2013,05,04,11,55,18.90
2013,05,04,11,56,19.00
2013,05,04,11,57,19.10
2013,05,04,11,58,19.10
2013,05,04,11,59,19.10
2013,05,04,12,00,19.10
2013,05,04,12,01,19.20
2013,05,04,12,02,19.10
2013,05,04,12,03,19.10
2013,05,04,12,04,19.00
2013,05,04,12,05,18.90
2013,05,04,12,06,18.90
2013,05,04,12,07,19.00
2013,05,04,12,08,19.10
2013,05,04,12,09,19.10
2013,05,04,12,10,19.10
2013,05,04,12,11,19.10
2013,05,04,12,12,19.20
2013,05,04,12,13,19.20
2013,05,04,12,14,19.20
2013,05,04,12,15,19.30
2013,05,04,12,16,19.30
2013,05,04,12,17,19.30
2013,05,04,12,18,19.40
2013,05,04,12,19,19.40
2013,05,04,12,20,19.40
2013,05,04,12,21,19.50
2013,05,04,12,22,19.60
2013,05,04,12,23,19.80
2013,05,04,12,24,19.90
2013,05,04,12,25,20.10
2013,05,04,12,26,20.10
2013,05,04,12,27,20.20
2013,05,04,12,28,20.40
2013,05,04,12,29,20.50
2013,05,04,12,30,20.50
2013,05,04,12,31,20.60
2013,05,04,12,32,20.60
2013,05,04,12,33,20.70
2013,05,04,12,34,20.70
2013,05,04,12,35,20.80
2013,05,04,12,36,20.80
2013,05,04,12,37,20.80
2013,05,04,12,38,20.90
2013,05,04,12,39,20.90
2013,05,04,12,40,21.00
2013,05,04,12,41,21.00
2013,05,04,12,42,21.10
2013,05,04,12,43,21.10
2013,05,04,12,44,21.10
2013,05,04,12,45,21.10
2013,05,04,12,46,21.20
2013,05,04,12,47,21.20
2013,05,04,12,48,21.20
2013,05,04,12,49,21.20
2013,05,04,12,50,21.20
2013,05,04,12,51,21.20
2013,05,04,12,52,21.10
2013,05,04,12,53,21.00
2013,05,04,12,54,20.90
2013,05,04,12,55,20.90
2013,05,04,12,56,20.80
2013,05,04,12,57,20.80
2013,05,04,12,58,20.80
2013,05,04,12,59,20.80
2013,05,04,13,00,20.80
2013,05,04,13,01,20.70
2013,05,04,13,02,20.60
2013,05,04,13,03,20.60
2013,05,04,13,04,20.60
2013,05,04,13,05,20.60
2013,05,04,13,06,20.60
2013,05,04,13,07,20.60
2013,05,04,13,08,20.60
2013,05,04,13,09,20.60
2013,05,04,13,10,20.60
2013,05,04,13,11,20.60
2013,05,04,13,12,20.60
2013,05,04,13,13,20.60
2013,05,04,13,14,20.70
2013,05,04,13,15,20.70
2013,05,04,13,16,20.80
2013,05,04,13,17,20.90
2013,05,04,13,18,20.90
2013,05,04,13,19,21.00
2013,05,04,13,20,21.00
2013,05,04,13,21,21.00
2013,05,04,13,22,20.90
2013,05,04,13,23,20.80
2013,05,04,13,24,20.80
2013,05,04,13,25,20.90
2013,05,04,13,26,20.90
2013,05,04,13,27,20.90
2013,05,04,13,28,21.00
2013,05,04,13,29,21.00
2013,05,04,13,30,21.00
2013,05,04,13,31,21.00
2013,05,04,13,32,21.00
2013,05,04,13,33,20.90
2013,05,04,13,34,20.90
2013,05,04,13,35,21.00
2013,05,04,13,36,21.00
2013,05,04,13,37,21.10
2013,05,04,13,38,21.10
2013,05,04,13,39,21.20
2013,05,04,13,40,21.20
2013,05,04,13,41,21.20
2013,05,04,13,42,21.20
2013,05,04,13,43,21.20
2013,05,04,13,44,21.20
2013,05,04,13,45,21.20
2013,05,04,13,46,21.30
2013,05,04,13,47,21.40
2013,05,04,13,48,21.50
2013,05,04,13,49,21.60
2013,05,04,13,50,21.60
2013,05,04,13,51,21.70
2013,05,04,13,52,21.70
2013,05,04,13,53,21.70
2013,05,04,13,54,21.70
2013,05,04,13,55,21.70
2013,05,04,13,56,21.70
2013,05,04,13,57,21.70
2013,05,04,13,58,21.70
2013,05,04,13,59,21.70
2013,05,04,14,00,21.70
2013,05,04,14,01,21.70
2013,05,04,14,02,21.60
2013,05,04,14,03,21.60
2013,05,04,14,04,21.60
2013,05,04,14,05,21.60
2013,05,04,14,06,21.70
2013,05,04,14,07,21.70
2013,05,04,14,08,21.80
2013,05,04,14,09,21.90
2013,05,04,14,10,21.90
2013,05,04,14,11,22.00
2013,05,04,14,12,22.00
2013,05,04,14,13,22.00
2013,05,04,14,14,22.00
2013,05,04,14,15,22.00
2013,05,04,14,16,22.00
2013,05,04,14,17,22.10
2013,05,04,14,18,22.10
2013,05,04,14,19,22.20
2013,05,04,14,20,22.30
2013,05,04,14,21,22.40
2013,05,04,14,22,22.40
2013,05,04,14,23,22.40
2013,05,04,14,24,22.40
2013,05,04,14,25,22.40
2013,05,04,14,26,22.40
2013,05,04,14,27,22.40
2013,05,04,14,28,22.30
2013,05,04,14,29,22.20
2013,05,04,14,30,22.10
2013,05,04,14,31,22.10
2013,05,04,14,32,22.10
2013,05,04,14,33,22.20
2013,05,04,14,34,22.20
2013,05,04,14,35,22.30
2013,05,04,14,36,22.30
2013,05,04,14,37,22.30
2013,05,04,14,38,22.40
2013,05,04,14,39,22.40
2013,05,04,14,40,22.50
2013,05,04,14,41,22.60
2013,05,04,14,42,22.60
2013,05,04,14,43,22.70
2013,05,04,14,44,22.80
2013,05,04,14,45,22.90
2013,05,04,14,46,22.90
2013,05,04,14,47,23.10
2013,05,04,14,48,23.10
2013,05,04,14,49,23.20
2013,05,04,14,50,23.30
2013,05,04,14,51,23.50
2013,05,04,14,52,23.60
2013,05,04,14,53,23.70
2013,05,04,14,54,23.80
2013,05,04,14,55,23.90
2013,05,04,14,56,24.00
2013,05,04,14,57,24.10
2013,05,04,14,58,24.20
2013,05,04,14,59,24.30
2013,05,04,15,00,24.40
2013,05,04,15,01,24.40
2013,05,04,15,02,24.40
2013,05,04,15,03,24.50
2013,05,04,15,04,24.60
2013,05,04,15,05,24.70
2013,05,04,15,06,24.80
2013,05,04,15,07,24.90
2013,05,04,15,08,24.90
2013,05,04,15,09,25.00
2013,05,04,15,10,25.20
2013,05,04,15,11,25.20
2013,05,04,15,12,25.30
2013,05,04,15,13,25.40
2013,05,04,15,14,25.40
2013,05,04,15,15,25.40
2013,05,04,15,16,25.40
2013,05,04,15,17,25.40
2013,05,04,15,18,25.50
2013,05,04,15,19,25.60
2013,05,04,15,20,25.60
2013,05,04,15,21,25.70
2013,05,04,15,22,25.70
2013,05,04,15,23,25.70
2013,05,04,15,24,25.70
2013,05,04,15,25,25.70
2013,05,04,15,26,25.70
2013,05,04,15,27,25.70
2013,05,04,15,28,25.70
2013,05,04,15,29,25.80
2013,05,04,15,30,25.80
2013,05,04,15,31,25.80
2013,05,04,15,32,25.80
2013,05,04,15,33,25.80
2013,05,04,15,34,25.80
2013,05,04,15,35,25.80
2013,05,04,15,36,25.70
2013,05,04,15,37,25.70
2013,05,04,15,38,25.70
2013,05,04,15,39,25.70
2013,05,04,15,40,25.60
2013,05,04,15,41,25.20
2013,05,04,15,42,24.80
2013,05,04,15,43,24.20
2013,05,04,15,44,23.60
2013,05,04,15,45,23.20
2013,05,04,15,46,22.90
2013,05,04,15,47,22.50
2013,05,04,15,48,22.30
2013,05,04,15,49,22.20
2013,05,04,15,50,22.20
2013,05,04,15,51,22.20
2013,05,04,15,52,22.10
2013,05,04,15,53,22.10
2013,05,04,15,54,22.00
2013,05,04,15,55,22.10
2013,05,04,15,56,22.10
2013,05,04,15,57,22.20
2013,05,04,15,58,22.20
2013,05,04,15,59,22.20
2013,05,04,16,00,22.20
2013,05,04,16,01,22.20
2013,05,04,16,02,22.10
2013,05,04,16,03,22.10
2013,05,04,16,04,22.10
2013,05,04,16,05,22.30
2013,05,04,16,06,22.50
2013,05,04,16,07,22.60
2013,05,04,16,08,22.70
2013,05,04,16,09,22.60
2013,05,04,16,10,22.60
2013,05,04,16,11,22.60
2013,05,04,16,12,22.50
2013,05,04,16,13,22.40
2013,05,04,16,14,22.20
2013,05,04,16,15,22.10
2013,05,04,16,16,22.00
2013,05,04,16,17,22.00
2013,05,04,16,18,22.10
2013,05,04,16,19,22.00
2013,05,04,16,20,22.10
2013,05,04,16,21,22.20
2013,05,04,16,22,22.30
2013,05,04,16,23,22.40
2013,05,04,16,24,22.40
2013,05,04,16,25,22.40
2013,05,04,16,26,22.40
2013,05,04,16,27,22.30
2013,05,04,16,28,22.20
2013,05,04,16,29,22.20
2013,05,04,16,30,22.20
2013,05,04,16,31,22.20
2013,05,04,16,32,22.20
2013,05,04,16,33,22.20
2013,05,04,16,34,22.20
2013,05,04,16,35,22.20
2013,05,04,16,36,22.20
2013,05,04,16,37,22.10
2013,05,04,16,38,22.00
2013,05,04,16,39,21.80
2013,05,04,16,40,21.70
2013,05,04,16,41,21.50
2013,05,04,16,42,21.30
2013,05,04,16,43,21.30
2013,05,04,16,44,21.30
2013,05,04,16,45,21.30
2013,05,04,16,46,21.30
2013,05,04,16,47,21.40
2013,05,04,16,48,21.50
2013,05,04,16,49,21.60
2013,05,04,16,50,21.60
2013,05,04,16,51,21.60
2013,05,04,16,52,21.60
2013,05,04,16,53,21.60
2013,05,04,16,54,21.60
2013,05,04,16,55,21.60
2013,05,04,16,56,21.60
2013,05,04,16,57,21.60
2013,05,04,16,58,21.40
2013,05,04,16,59,21.20
2013,05,04,17,00,21.10
2013,05,04,17,01,21.00
2013,05,04,17,02,20.90
2013,05,04,17,03,20.70
2013,05,04,17,04,20.60
2013,05,04,17,05,20.50
2013,05,04,17,06,20.30
2013,05,04,17,07,20.10
2013,05,04,17,08,20.00
2013,05,04,17,09,19.90
2013,05,04,17,10,19.80
2013,05,04,17,11,19.60
2013,05,04,17,12,19.50
2013,05,04,17,13,19.30
2013,05,04,17,14,19.00
2013,05,04,17,15,18.70
2013,05,04,17,16,18.60
2013,05,04,17,17,18.50
2013,05,04,17,18,18.40
2013,05,04,17,19,18.50
2013,05,04,17,20,18.50
2013,05,04,17,21,18.50
2013,05,04,17,22,18.50
2013,05,04,17,23,18.70
2013,05,04,17,24,18.80